Weather in Czarna Bialostocka

Poland     53°18′04″N   23°17′11″E
temp.,
°C
wind,
m/s
gust,
m/s
humid.,
%
clouds,
%
prec.,
mm/h
press.,
hPa
HPBL,
m
20 june, sun
sun2023:00+19se26840 0.0 1018102
02:00+18se24890 0.0 101876
05:00+18se23904 0.0 101759
08:00+24ese46640 0.0 1017542
11:00+28se47505 0.0 10171490
14:00+30se57425 0.0 10152123
17:00+28s465439 0.0 10141027
20:00+23sse248552 1.6 101476
21 june, mon
mon2123:00+18ese27895 0.0 1015141
02:00+18ese279088 0.0 1014168
05:00+18ese289436 0.0 1013204
08:00+24ese366798 0.0 1013617
11:00+28se47465 0.0 10121526
14:00+30ese574334 0.0 10112187
17:00+26ese4760100 0.1 1010945
20:00+22ese27842 0.9 1010190
22 june, tue
tue2223:00+20se23921 0.0 101159
02:00+19se24965 0.0 101088
05:00+18se26962 0.0 1011140
08:00+24sse46712 0.0 1011522
11:00+28s46510 0.0 10121593
14:00+29ssw464753 0.0 10121988
17:00+28sse235792 0.0 1012271
20:00+24ese227814 0.3 101247
23 june, wed
wed2323:00+21se228498 0.0 101335
02:00+20se2287100 0.0 101430
05:00+20se118895 0.0 101422
08:00+25sse246758 0.0 1015441
11:00+29s34557 0.3 10151361
14:00+31s344647 1.2 10152228
17:00+26w3577100 1.4 1016120
20:00+23nw2288100 4.8 101619
24 june, thu
thu2423:00+21nnw1193100 3.9 101711
02:00+20ene3597100 9.4 1016109
05:00+20wnw1195100 1.3 101624
08:00+23ne1185100 1.3 1017260
11:00+29e126297 0.7 1016908
14:00+30s2350100 1.3 10151383
17:00+24e5985100 2.3 1015246
20:00+20ese41089100 7.1 1014262